SL-16 DEB, 22366

Orbit data source: Space-Track

SL-16 DEB, 22366 is space debris in LEO originally from a launch on Fri, 25 Dec 1992 UTC launched from the Tyuratam Missile And Space Complex (TTMTR). Debris objects in space refer to the collection of defunct objects orbiting the Earth. Examples of debris include non-operational satellites, rocket bodies, and fragments generated from explosions, collisions, or faulty payload assembly.

Loading next visibility...
Identifier
22366, 1992-093BF
Orbit
LEO
Country
Flag of CISCIS
Related business
Manufacturer
Unknown
Mission
Spacecraft
Bus & Motor
Unknown
Mass
Unknown
Launch date (UTC)
1992-12-25 (33 years ago)
Launch vehicle
Unknown
Launch site
Tyuratam Missile And Space Complex (TTMTR)
Object type
Payload
Rocket body
Debris
Shape & HBR
Unknown shape, 0.3 m
Radar Cross Section
Medium (>0.1 m² and <1 m²)

Expand to show TLE details & history
Last TLE update: 5 hours ago

TLE from 5 hours ago
0 SL-16 DEB
1 22366U 92093BF  25297.73303251  .00023907  00000-0  42424-2 0  9990
2 22366  71.1059 191.4654 0066668 349.7254  77.7913 14.65705740689523
Epoch: 2025-10-24T17:35Z
TLE epoch observation values (Epoch: 2025-10-24T17:35:34.008Z)
Latitude
61.61441°
Longitude
-66.75259°
Altitude
675.174 km
Speed
7.531 km/s
True Right ascension
15h 22m 03s
True Declination
61° 28' 07"
Sunlit
Object was in daylight at epoch
Visualization orbit readout
Latitude
Unknown
Longitude
Unknown
Altitude
Unknown
Speed
Unknown
Apparent Right ascension
Unknown
Apparent Declination
Unknown
Sunlit
N/A
Visualization observer readout
Local Sidereal Time
18:16:29
Azimuth
Unknown
Elevation
Unknown
Doppler factor
Unknown
Orbital elements
Apogee altitude
719.681 km
Perigee altitude
625.669 km
Semi-major axis
7,050.812 km
Eccentricity
0.00667
Inclination
71.1059°
RAAN
191.4654°
Arg. of periapsis
349.7254°
True anomaly
78.53928°
Mean anomaly
77.7913°
Eccentric anomaly
78.16516°
Mean motion
3.66593 °/min
Orbital period
98.2 mins
BSTAR
0.0042424
Loading maneuver chart data...
Computing Atmospheric mass density...
Loading historical data...
Loading historical data...
Loading historical data...
Loading historical data...
Loading historical data...
Loading historical data...
Loading historical data...

Documentation

Showing up to 5 results
|